RH
45 45 44 44 48 56 57 55 56 54 55 49 40 41 39 26 19 18 10 7 6 6 5 4 3 3 3 3 3 3 3 3 3 3 2 2 2 2 3 4 4 4 5
40 44 50 59 61 62 61 62 71 71 52 47 47 45 28 19 13 8 7 6 6 4 3 3 3 3 3 3 3 3 3 3 3 3 3 3 2 2 2 3 4 4 4
50 55 57 59 61 71 75 75 78 76 55 49 41 25 15 9 7 6 5 5 4 3 3 3 3 3 3 3 3 3 3 3 3 4 4 3 3 3 3 3 3 3 4
60 64 72 82 80 72 80 79 61 51 44 29 16 11 7 6 6 5 4 4 4 4 4 4 4 4 4 4 4 4 4 3 3 3 4 4 4 3 3 3 4 4 4
80 91 89 81 73 65 58 50 41 27 19 12 8 6 6 5 4 4 4 4 4 4 4 4 4 4 4 4 4 4 4 4 3 3 4 4 4 3 3 3 4 5 4
75 76 76 75 69 61 49 31 23 15 11 10 6 6 5 4 4 4 4 4 4 4 4 4 4 4 4 4 4 4 4 4 3 3 3 3 4 3 3 4 4 5 5
89 92 74 63 60 44 30 24 14 10 9 6 6 4 4 4 4 4 4 4 4 4 4 4 4 4 4 4 3 4 4 4 4 3 3 3 3 3 3 4 4 4 4
91 64 61 55 45 29 22 16 11 9 7 6 4 4 4 4 4 5 5 5 5 4 4 5 4 4 3 3 3 3 3 3 3 3 3 3 3 3 3 3 4 4 4
75 63 57 38 29 20 14 10 8 7 6 5 4 4 4 5 5 5 6 5 5 4 5 5 4 4 3 3 3 3 3 3 3 3 3 3 3 4 3 4 4 4 4
64 58 43 26 21 15 11 9 7 6 5 4 4 4 5 5 6 6 6 5 5 5 4 4 3 3 3 3 3 3 4 4 3 3 3 4 4 4 4 4 4 4 5
60 47 34 22 16 10 9 7 6 5 5 4 4 5 6 6 7 6 6 6 5 4 3 3 3 3 3 3 3 3 3 3 3 3 4 4 4 4 4 5 5 5 6
53 36 24 15 10 9 8 6 5 5 5 4 5 6 7 8 6 6 6 5 4 4 4 4 4 4 4 4 3 3 3 3 3 3 4 4 4 5 5 6 6 6 6
49 33 16 11 9 8 6 5 5 5 4 5 6 7 7 7 6 5 4 4 4 4 4 4 4 4 4 4 3 3 3 3 3 3 4 5 6 6 6 6 6 7 7
32 17 11 10 8 6 5 5 5 4 5 6 7 7 7 7 6 4 4 4 4 4 5 4 4 4 4 4 4 3 3 3 3 4 5 6 6 6 7 7 7 7 7
16 12 11 8 6 5 5 5 4 5 6 6 7 7 6 6 5 5 5 4 4 5 5 4 4 5 5 5 4 4 3 3 3 4 6 7 7 8 8 8 8 8 8
13 12 9 6 5 5 5 4 5 5 6 7 6 6 5 5 6 6 6 5 5 6 6 5 5 5 5 5 4 4 4 4 4 4 6 7 8 9 9 9 9 9 10
11 10 6 5 5 4 4 5 5 6 7 6 6 6 6 7 7 7 6 6 5 6 6 5 5 5 5 5 5 5 5 5 5 5 6 7 9 10 10 10 11 11 11
10 7 5 5 4 4 5 5 6 7 7 6 6 6 7 6 6 6 6 6 5 6 6 5 5 5 5 5 5 5 5 5 5 6 5 7 9 11 11 12 12 12 13
7 5 5 4 4 5 6 6 7 7 6 5 6 6 6 6 7 7 7 6 6 6 6 5 5 5 5 5 5 5 6 6 6 6 6 6 7 8 10 12 13 14 14
5 5 5 5 6 6 6 7 6 6 6 6 7 7 7 7 8 8 8 7 7 6 5 5 5 5 5 5 5 5 5 6 6 7 7 7 7 6 8 8 10 13 14
5 5 4 6 6 7 6 6 6 6 6 8 7 7 8 8 8 8 7 7 7 6 6 5 5 5 5 5 4 5 5 5 6 6 7 8 8 8 7 6 7 8 9
6 5 5 6 7 7 6 6 6 6 7 8 8 8 8 7 6 6 6 6 6 6 6 6 5 5 5 5 5 4 4 5 5 5 6 7 8 8 9 9 8 7 6
5 5 6 7 7 6 6 6 5 6 8 8 8 8 7 5 5 5 5 5 6 6 5 5 5 5 5 5 5 5 4 4 5 5 6 6 7 7 8 8 9 9 8
5 6 7 7 7 6 6 5 6 7 9 8 8 8 6 5 4 4 4 5 5 5 5 4 4 4 4 4 5 5 5 4 4 4 5 5 6 6 6 6 7 8 8
6 7 7 7 7 6 5 5 6 7 9 8 8 6 5 5 5 4 4 4 4 4 4 4 4 4 4 4 4 4 5 4 4 4 4 4 5 5 5 6 6 6 6
6 7 7 6 6 5 5 5 6 8 9 8 7 5 5 5 5 4 4 4 4 4 4 4 4 4 4 4 4 4 4 4 4 4 4 4 4 4 5 5 5 5 5
Wind_Speed
68 73 79 86 91 96 102 106 112 117 121 122 123 124 125 119 117 119 117 112 108 103 98 93 89 84 81 78 75 71 68 66 62 67 71 74 72 71 73 75 80 85 90
74 81 87 92 98 103 108 115 120 124 126 129 129 128 124 119 115 111 108 103 99 94 88 83 80 75 72 70 68 66 63 61 56 58 65 68 67 65 65 66 71 76 82
81 87 94 100 105 111 116 120 126 131 132 131 125 119 118 111 107 102 96 91 87 82 78 74 71 69 67 65 64 63 61 58 54 51 58 60 63 62 61 61 64 70 75
90 96 102 107 112 118 123 126 129 127 123 120 115 110 105 100 96 91 86 82 78 75 72 68 66 65 64 63 60 59 57 55 52 49 52 56 57 59 57 56 57 63 68
98 103 106 112 120 125 126 124 119 117 113 111 107 100 96 91 87 83 79 76 73 70 67 64 63 62 59 57 55 54 53 51 49 46 48 51 53 55 54 53 53 55 63
104 107 112 122 125 127 123 122 120 114 111 107 100 93 89 85 81 77 74 72 69 67 64 61 60 58 56 54 51 49 49 48 46 43 44 45 47 48 48 50 53 55 61
111 115 119 125 125 126 125 123 116 112 105 98 92 87 83 78 74 71 69 68 67 64 60 58 58 56 53 50 47 44 43 44 46 44 43 41 43 39 40 47 50 52 56
116 124 127 125 126 127 123 120 114 108 99 92 85 80 76 73 70 68 66 64 62 60 58 57 56 55 51 47 44 41 40 38 41 41 39 36 39 38 40 42 45 48 49
125 127 128 127 126 123 120 117 107 99 92 85 81 75 72 69 66 64 62 61 60 58 55 52 50 48 46 43 39 37 34 34 33 33 33 32 35 37 38 40 40 43 42
128 128 127 126 124 123 118 110 100 93 86 80 75 70 67 65 62 59 58 59 57 53 49 45 42 40 39 37 35 33 30 29 28 27 27 29 30 32 36 36 38 38 38
131 128 128 127 123 118 109 100 93 86 80 75 71 67 64 62 59 58 55 53 52 50 47 45 41 38 35 33 30 28 26 24 24 24 24 25 26 28 31 32 33 35 35
129 129 128 123 117 110 101 93 86 80 75 71 67 63 60 58 58 55 51 48 47 47 45 42 40 36 33 29 26 24 22 21 20 20 21 22 22 24 27 28 31 32 34
129 129 124 118 110 101 94 87 81 75 70 67 64 60 57 57 55 52 48 45 44 44 43 40 36 33 30 26 23 21 19 18 18 18 19 20 21 23 25 27 29 30 31
128 122 117 109 102 94 87 80 75 70 67 64 62 58 56 54 52 50 48 46 42 41 40 37 33 31 27 24 20 18 17 15 15 15 16 18 19 21 23 24 26 28 28
121 116 110 103 94 87 81 75 70 66 63 61 59 56 54 52 51 50 48 46 43 40 38 36 32 29 24 21 19 17 16 15 15 15 15 17 18 19 21 22 24 25 26
114 109 102 94 87 80 75 70 67 63 61 59 57 55 53 52 51 49 46 43 41 37 36 34 31 27 23 20 18 16 16 15 15 15 15 16 17 19 20 21 22 23 24
106 99 94 87 81 75 70 67 63 60 58 57 54 54 54 51 48 45 43 40 38 34 32 31 29 25 22 19 17 17 16 15 15 15 16 16 17 18 20 21 22 23 25
98 93 86 81 75 71 68 64 60 57 54 52 53 52 49 45 43 41 40 37 34 32 30 29 28 25 22 20 18 17 17 16 16 16 17 18 18 19 20 22 23 24 26
91 85 80 75 72 69 65 60 57 55 52 51 50 47 45 44 43 41 40 37 34 32 30 28 26 25 23 21 19 18 18 18 18 18 19 20 20 21 22 23 24 25 27
85 80 75 72 69 65 61 57 54 52 52 51 47 44 43 42 41 40 39 37 35 33 30 28 26 25 23 21 20 19 20 20 21 21 21 22 22 23 24 25 26 26 28
80 76 71 68 65 62 58 54 52 51 51 48 45 43 41 41 40 39 37 36 35 33 30 28 25 24 23 22 21 20 20 22 23 23 24 24 24 25 26 28 28 29 30
75 72 69 65 63 59 55 53 50 49 48 45 43 41 41 40 38 37 36 35 35 34 31 28 25 23 23 23 22 22 21 22 24 25 25 26 26 27 28 29 30 31 31
70 68 66 63 60 56 53 51 50 48 46 43 41 41 40 39 37 36 35 34 34 34 31 28 27 24 22 23 23 23 23 23 24 25 26 27 27 29 30 31 31 32 32
67 64 62 60 58 54 51 50 49 48 45 42 40 40 40 39 38 37 36 34 32 33 33 30 28 25 22 22 23 23 24 24 25 25 26 26 27 29 30 31 31 32 33
63 61 59 57 56 53 51 49 49 48 45 42 40 38 38 39 39 39 37 34 33 31 32 31 29 26 23 22 22 23 24 24 25 25 26 27 28 28 29 31 31 32 32
60 58 56 55 54 53 52 50 48 47 44 42 40 38 38 38 39 39 38 36 33 31 31 31 29 26 23 22 22 23 23 24 24 25 25 25 27 27 28 29 31 31 31
Wind_Direction
298 297 295 297 300 300 301 303 304 306 307 308 309 310 310 308 307 305 302 301 299 299 297 297 294 292 291 289 288 285 281 276 272 269 266 265 262 258 254 251 248 245 243
296 299 301 301 304 305 305 307 308 309 310 311 312 311 309 308 305 302 301 301 299 298 297 295 293 292 291 289 286 284 281 278 273 268 266 265 263 260 256 251 248 246 243
303 304 306 308 309 310 310 310 310 309 309 310 310 309 308 307 304 303 301 299 299 297 297 296 296 295 292 290 287 285 282 279 274 267 265 262 262 260 255 251 247 245 243
309 310 311 312 313 312 311 309 309 310 309 309 310 310 307 306 304 303 302 301 301 301 301 300 298 294 292 290 288 285 282 279 274 268 262 260 257 256 254 250 246 244 244
314 314 313 313 313 312 310 310 310 310 311 313 312 310 308 307 307 305 304 304 303 303 301 300 297 295 293 292 290 286 282 279 274 268 262 259 254 252 251 248 243 239 240
315 314 314 315 314 313 314 314 314 315 316 315 314 311 310 309 308 307 307 305 305 304 303 301 299 297 295 293 289 285 283 280 275 269 264 258 256 251 247 246 242 236 237
316 315 314 315 315 315 316 317 318 318 317 316 314 313 311 310 309 309 309 307 306 306 305 304 302 300 297 294 291 286 280 276 275 270 265 262 259 256 248 244 243 239 238
315 317 317 317 317 317 318 318 319 319 317 315 314 313 312 312 312 311 310 309 307 307 306 304 301 300 298 296 291 286 282 277 272 273 271 264 259 253 248 246 243 242 241
318 319 320 319 318 318 319 319 320 319 317 316 316 315 314 313 313 313 311 309 308 307 305 303 301 299 298 296 294 290 285 280 275 270 266 260 254 250 248 246 245 243 241
319 320 319 320 318 319 320 320 319 318 317 317 316 316 315 315 314 312 312 311 310 309 307 306 304 302 300 299 297 294 289 283 278 272 265 258 252 248 245 243 242 242 238
321 320 320 319 319 319 320 319 319 318 318 317 318 318 316 315 315 315 314 313 312 312 312 312 310 308 304 299 295 291 287 280 275 269 263 257 250 246 243 242 241 239 236
320 320 319 319 319 320 319 319 318 318 318 317 318 317 316 316 316 316 314 314 314 313 314 314 313 311 307 302 294 289 285 278 272 265 260 256 251 244 240 239 238 237 234
320 319 318 318 319 320 319 319 319 319 318 318 318 318 318 318 317 316 315 316 316 315 315 315 313 311 307 304 295 289 286 279 273 264 254 250 244 241 238 238 237 236 234
319 318 318 319 320 319 319 319 319 319 319 319 319 319 320 318 316 316 317 319 318 316 314 315 316 313 307 304 294 289 284 278 274 268 257 250 244 241 238 236 237 236 235
318 317 318 319 319 319 319 320 319 319 320 320 319 319 319 318 316 316 318 319 319 318 317 318 318 315 308 303 293 288 282 277 272 267 257 251 245 242 239 236 237 238 237
317 318 317 319 320 320 320 320 320 320 320 319 319 319 320 319 317 317 318 318 317 317 316 316 316 313 306 301 292 287 280 274 269 264 257 250 245 240 238 237 236 238 238
317 317 318 319 320 320 320 320 320 321 321 320 320 321 320 319 318 318 318 317 316 315 314 313 312 311 306 300 291 284 278 269 265 262 257 252 247 243 240 239 237 236 236
316 317 318 319 320 321 320 320 320 321 320 320 320 321 321 321 321 321 320 319 317 316 315 313 312 310 307 300 292 281 277 268 261 259 256 251 246 243 242 240 239 239 239
316 318 319 319 320 320 320 320 321 321 320 322 322 321 322 323 324 324 323 322 321 319 316 314 310 308 305 300 292 281 272 269 262 257 256 253 250 246 242 241 240 241 243
317 318 319 319 320 320 320 321 321 321 322 323 322 322 323 323 322 322 322 322 321 319 317 315 311 307 303 298 292 284 273 268 265 259 255 254 254 250 248 246 243 242 243
318 317 318 319 319 319 319 320 321 323 323 323 322 322 322 321 321 321 321 321 321 320 319 316 312 306 300 296 291 285 277 269 265 263 260 256 254 253 252 250 249 247 247
317 316 318 318 318 318 319 320 321 323 323 322 321 320 320 321 322 323 324 323 319 318 317 314 311 305 298 293 289 284 278 273 267 263 260 259 256 254 252 252 252 252 251
315 316 316 317 317 317 319 320 321 322 322 321 320 319 320 322 324 324 324 324 320 317 317 313 310 306 299 292 287 283 277 273 270 268 264 260 259 258 257 254 253 253 253
314 315 315 316 316 317 319 320 320 322 321 320 319 319 320 322 323 323 324 323 321 316 314 314 310 306 299 293 286 282 278 273 270 268 266 264 261 257 258 259 258 256 254
314 315 315 316 315 316 317 318 320 320 319 318 318 319 319 319 321 321 322 322 321 315 311 312 311 309 301 294 287 283 277 274 272 270 267 264 263 262 258 257 258 259 259
314 315 314 314 314 315 316 317 319 318 317 317 317 318 318 318 319 320 321 322 321 318 312 311 311 309 302 297 289 282 277 273 271 270 268 265 263 262 262 258 255 255 257